Time,TemperatureF,DewpointF,PressureIn,WindDirection,WindDirectionDegrees,WindSpeedMPH,WindSpeedGustMPH,Humidity,HourlyPrecipIn,Conditions,Clouds,dailyrainin,SoftwareType,DateUTC
2013-09-10 00:23:00,79.0,65.0,29.98,South,170,0.0,1.0,62,0.00,,,0.00,,2013-09-10 05:23:00,
2013-09-10 00:53:00,78.0,65.0,29.98,SW,219,0.0,1.0,64,0.00,,,0.00,,2013-09-10 05:53:00,
2013-09-10 01:12:00,78.0,65.0,29.98,South,172,0.0,1.0,64,0.00,,,0.00,,2013-09-10 06:12:00,
2013-09-10 01:22:00,77.0,65.0,29.99,South,172,0.0,0.0,67,0.00,,,0.00,,2013-09-10 06:22:00,
2013-09-10 01:43:00,76.0,66.0,29.99,South,172,0.0,0.0,71,0.00,,,0.00,,2013-09-10 06:43:00,
2013-09-10 01:52:00,75.0,66.0,29.99,South,172,0.0,0.0,74,0.00,,,0.00,,2013-09-10 06:52:00,
2013-09-10 02:12:00,74.0,66.0,30.00,South,172,0.0,0.0,75,0.00,,,0.00,,2013-09-10 07:12:00,
2013-09-10 02:22:00,74.0,66.0,30.00,South,172,0.0,0.0,75,0.00,,,0.00,,2013-09-10 07:22:00,
2013-09-10 02:42:00,73.0,65.0,30.00,South,172,0.0,0.0,77,0.00,,,0.00,,2013-09-10 07:42:00,
2013-09-10 02:52:00,72.0,65.0,30.01,South,172,0.0,0.0,79,0.00,,,0.00,,2013-09-10 07:52:00,
2013-09-10 03:12:00,72.0,65.0,30.01,South,172,0.0,0.0,78,0.00,,,0.00,,2013-09-10 08:12:00,
2013-09-10 03:22:00,72.0,65.0,30.01,South,172,0.0,0.0,79,0.00,,,0.00,,2013-09-10 08:22:00,
2013-09-10 03:52:00,71.0,65.0,30.02,South,172,0.0,0.0,82,0.00,,,0.00,,2013-09-10 08:52:00,
2013-09-10 04:11:00,70.0,65.0,30.02,South,172,0.0,0.0,83,0.00,,,0.00,,2013-09-10 09:11:00,
2013-09-10 04:21:00,70.0,65.0,30.02,South,172,0.0,0.0,83,0.00,,,0.00,,2013-09-10 09:21:00,
2013-09-10 04:43:00,69.0,64.0,30.02,South,172,0.0,0.0,83,0.00,,,0.00,,2013-09-10 09:43:00,
2013-09-10 04:54:00,69.0,64.0,30.03,South,172,0.0,0.0,84,0.00,,,0.00,,2013-09-10 09:54:00,
2013-09-10 05:13:00,69.0,65.0,30.03,South,172,0.0,0.0,86,0.00,,,0.00,,2013-09-10 10:13:00,
2013-09-10 05:23:00,69.0,65.0,30.03,South,172,0.0,0.0,86,0.00,,,0.00,,2013-09-10 10:23:00,
2013-09-10 05:53:00,69.0,65.0,30.04,South,172,0.0,0.0,88,0.00,,,0.00,,2013-09-10 10:53:00,
2013-09-10 06:12:00,68.0,64.0,30.04,South,172,0.0,0.0,87,0.00,,,0.00,,2013-09-10 11:12:00,
2013-09-10 06:22:00,68.0,64.0,30.05,South,172,0.0,0.0,88,0.00,,,0.00,,2013-09-10 11:22:00,
2013-09-10 06:42:00,69.0,64.0,30.05,South,172,0.0,0.0,85,0.00,,,0.00,,2013-09-10 11:42:00,
2013-09-10 06:52:00,70.0,64.0,30.06,SW,224,0.0,0.0,82,0.00,,,0.00,,2013-09-10 11:52:00,
2013-09-10 07:12:00,71.0,64.0,30.06,SW,224,0.0,0.0,79,0.00,,,0.00,,2013-09-10 12:12:00,
2013-09-10 07:22:00,71.0,63.0,30.07,SSE,163,0.0,1.0,77,0.00,,,0.00,,2013-09-10 12:22:00,
2013-09-10 07:42:00,72.0,64.0,30.07,SSE,166,0.0,0.0,77,0.00,,,0.00,,2013-09-10 12:42:00,
2013-09-10 07:52:00,72.0,64.0,30.08,SSE,160,0.0,1.0,77,0.00,,,0.00,,2013-09-10 12:52:00,
2013-09-10 08:11:00,72.0,64.0,30.08,SSE,160,0.0,0.0,77,0.00,,,0.00,,2013-09-10 13:11:00,
2013-09-10 08:21:00,72.0,65.0,30.09,South,191,0.0,0.0,78,0.00,,,0.00,,2013-09-10 13:21:00,
2013-09-10 08:42:00,73.0,66.0,30.09,South,170,0.0,1.0,78,0.00,,,0.00,,2013-09-10 13:42:00,
2013-09-10 08:52:00,74.0,66.0,30.10,SSW,203,0.0,3.0,75,0.00,,,0.00,,2013-09-10 13:52:00,
2013-09-10 09:11:00,75.0,66.0,30.10,SW,233,0.0,2.0,74,0.00,,,0.00,,2013-09-10 14:11:00,
2013-09-10 09:21:00,76.0,66.0,30.10,SSE,148,1.0,3.0,72,0.00,,,0.00,,2013-09-10 14:21:00,
2013-09-10 09:52:00,78.0,67.0,30.11,SW,217,0.0,2.0,70,0.00,,,0.00,,2013-09-10 14:52:00,
2013-09-10 10:11:00,80.0,68.0,30.12,WSW,239,0.0,2.0,68,0.00,,,0.00,,2013-09-10 15:11:00,
2013-09-10 10:22:00,81.0,68.0,30.12,SSE,153,1.0,4.0,65,0.00,,,0.00,,2013-09-10 15:22:00,
2013-09-10 10:43:00,83.0,69.0,30.13,SSW,205,1.0,4.0,63,0.00,,,0.00,,2013-09-10 15:43:00,
2013-09-10 10:54:00,84.0,69.0,30.12,West,270,1.0,4.0,61,0.00,,,0.00,,2013-09-10 15:54:00,
2013-09-10 11:13:00,85.0,70.0,30.12,WSW,256,0.0,6.0,60,0.00,,,0.00,,2013-09-10 16:13:00,
2013-09-10 11:23:00,87.0,69.0,30.12,SW,217,2.0,5.0,56,0.00,,,0.00,,2013-09-10 16:23:00,
2013-09-10 11:43:00,87.0,69.0,30.12,SW,215,0.0,5.0,56,0.00,,,0.00,,2013-09-10 16:43:00,
2013-09-10 11:53:00,89.0,71.0,30.12,SE,125,0.0,3.0,55,0.00,,,0.00,,2013-09-10 16:53:00,
2013-09-10 12:12:00,89.0,69.0,30.12,SW,232,2.0,6.0,52,0.00,,,0.00,,2013-09-10 17:12:00,
2013-09-10 12:23:00,90.0,69.0,30.12,SSW,193,2.0,5.0,50,0.00,,,0.00,,2013-09-10 17:23:00,
2013-09-10 12:52:00,90.0,68.0,30.12,NNW,337,2.0,7.0,48,0.00,,,0.00,,2013-09-10 17:52:00,
2013-09-10 13:12:00,91.0,69.0,30.11,WSW,248,1.0,9.0,48,0.00,,,0.00,,2013-09-10 18:12:00,
2013-09-10 13:21:00,92.0,69.0,30.11,SSE,152,1.0,5.0,48,0.00,,,0.00,,2013-09-10 18:21:00,
2013-09-10 13:43:00,93.0,70.0,30.11,South,169,3.0,8.0,47,0.00,,,0.00,,2013-09-10 18:43:00,
2013-09-10 13:52:00,93.0,69.0,30.11,SE,127,1.0,7.0,46,0.00,,,0.00,,2013-09-10 18:52:00,
2013-09-10 14:12:00,92.0,69.0,30.10,WSW,243,1.0,5.0,48,0.00,,,0.00,,2013-09-10 19:12:00,
2013-09-10 14:22:00,93.0,68.0,30.09,SSW,207,2.0,6.0,45,0.00,,,0.00,,2013-09-10 19:22:00,
2013-09-10 14:42:00,93.0,67.0,30.09,South,176,2.0,8.0,43,0.00,,,0.00,,2013-09-10 19:42:00,
2013-09-10 14:52:00,93.0,68.0,30.08,SSE,163,1.0,8.0,44,0.00,,,0.00,,2013-09-10 19:52:00,
2013-09-10 15:12:00,94.0,68.0,30.08,North,11,0.0,7.0,43,0.00,,,0.00,,2013-09-10 20:12:00,
2013-09-10 15:21:00,95.0,68.0,30.07,WSW,246,1.0,8.0,42,0.00,,,0.00,,2013-09-10 20:21:00,
2013-09-10 15:42:00,93.0,66.0,30.07,SW,229,2.0,6.0,41,0.00,,,0.00,,2013-09-10 20:42:00,
2013-09-10 15:52:00,93.0,67.0,30.06,West,278,1.0,6.0,43,0.00,,,0.00,,2013-09-10 20:52:00,
2013-09-10 16:23:00,93.0,66.0,30.05,West,274,2.0,6.0,41,0.00,,,0.00,,2013-09-10 21:23:00,
2013-09-10 16:44:00,92.0,68.0,30.05,South,176,1.0,6.0,45,0.00,,,0.00,,2013-09-10 21:44:00,
2013-09-10 16:54:00,92.0,66.0,30.04,East,90,1.0,7.0,43,0.00,,,0.00,,2013-09-10 21:54:00,
2013-09-10 17:14:00,94.0,68.0,30.04,SSE,155,3.0,9.0,43,0.00,,,0.00,,2013-09-10 22:14:00,
2013-09-10 17:24:00,94.0,67.0,30.04,ESE,108,2.0,6.0,42,0.00,,,0.00,,2013-09-10 22:24:00,
2013-09-10 17:42:00,93.0,67.0,30.03,SSW,205,0.0,6.0,43,0.00,,,0.00,,2013-09-10 22:42:00,
2013-09-10 17:54:00,92.0,65.0,30.04,East,90,2.0,9.0,41,0.00,,,0.00,,2013-09-10 22:54:00,
2013-09-10 18:13:00,91.0,63.0,30.03,SW,215,3.0,7.0,40,0.00,,,0.00,,2013-09-10 23:13:00,
2013-09-10 18:23:00,90.0,64.0,30.04,WSW,239,2.0,6.0,42,0.00,,,0.00,,2013-09-10 23:23:00,
2013-09-10 18:42:00,90.0,64.0,30.04,SW,215,1.0,4.0,43,0.00,,,0.00,,2013-09-10 23:42:00,
2013-09-10 18:53:00,88.0,65.0,30.04,South,170,0.0,2.0,46,0.00,,,0.00,,2013-09-10 23:53:00,
2013-09-10 19:11:00,87.0,65.0,30.04,SSE,148,0.0,2.0,48,0.00,,,0.00,,2013-09-11 00:11:00,
2013-09-10 19:22:00,85.0,64.0,30.04,WNW,294,0.0,1.0,50,0.00,,,0.00,,2013-09-11 00:22:00,
2013-09-10 19:42:00,84.0,65.0,30.04,WNW,293,0.0,0.0,53,0.00,,,0.00,,2013-09-11 00:42:00,
2013-09-10 19:52:00,83.0,65.0,30.04,WNW,293,0.0,0.0,55,0.00,,,0.00,,2013-09-11 00:52:00,
2013-09-10 20:11:00,82.0,66.0,30.04,WNW,293,0.0,0.0,58,0.00,,,0.00,,2013-09-11 01:11:00,
2013-09-10 20:21:00,81.0,65.0,30.05,WNW,293,0.0,0.0,59,0.00,,,0.00,,2013-09-11 01:21:00,
2013-09-10 20:42:00,80.0,64.0,30.05,WNW,293,0.0,0.0,59,0.00,,,0.00,,2013-09-11 01:42:00,
2013-09-10 20:53:00,80.0,65.0,30.06,WNW,297,0.0,0.0,61,0.00,,,0.00,,2013-09-11 01:53:00,
2013-09-10 21:22:00,78.0,65.0,30.07,WNW,297,0.0,0.0,65,0.00,,,0.00,,2013-09-11 02:22:00,
2013-09-10 21:43:00,77.0,65.0,30.08,WNW,297,0.0,0.0,67,0.00,,,0.00,,2013-09-11 02:43:00,
2013-09-10 21:52:00,76.0,65.0,30.09,WNW,297,0.0,0.0,69,0.00,,,0.00,,2013-09-11 02:52:00,
2013-09-10 22:12:00,75.0,65.0,30.09,WNW,297,0.0,0.0,72,0.00,,,0.00,,2013-09-11 03:12:00,
2013-09-10 22:22:00,75.0,65.0,30.09,WNW,297,0.0,0.0,72,0.00,,,0.00,,2013-09-11 03:22:00,
2013-09-10 22:45:00,75.0,66.0,30.10,WNW,297,0.0,0.0,73,0.00,,,0.00,,2013-09-11 03:45:00,
2013-09-10 22:54:00,74.0,65.0,30.10,WNW,297,0.0,0.0,74,0.00,,,0.00,,2013-09-11 03:54:00,
2013-09-10 23:14:00,74.0,65.0,30.10,WNW,297,0.0,0.0,74,0.00,,,0.00,,2013-09-11 04:14:00,
2013-09-10 23:24:00,73.0,66.0,30.11,WNW,297,0.0,0.0,78,0.00,,,0.00,,2013-09-11 04:24:00,
2013-09-10 23:43:00,72.0,65.0,30.11,WNW,297,0.0,0.0,78,0.00,,,0.00,,2013-09-11 04:43:00,
2013-09-10 23:54:00,72.0,65.0,30.10,WNW,297,0.0,0.0,79,0.00,,,0.00,,2013-09-11 04:54:00,